CW8332 Weather Reports


time (UTC)temp
F
wind
direction
speed
knots
gust
knots
rain 1hr
in
rain 24hr
in
rain mn
in
humidity
%
barometer
mb
20260506143219 52 286 4.3 7.8 0.02 0.56 0.20 78 1009.5
20260506141713 51 235 1.7 5.2 0.01 0.55 0.19 80 1009.2
20260506140259 51 247 0.0 3.5 0.02 0.55 0.19 83 1009.1
20260506134725 50 255 0.9 3.5 0.01 0.54 0.18 87 1009.2
20260506133215 48 288 2.6 7.0 0.02 0.54 0.18 90 1009.1
20260506131729 47 234 1.7 4.3 0.02 0.54 0.18 91 1008.9
20260506130236 47 285 0.0 2.6 0.01 0.53 0.17 91 1008.5
20260506124714 48 291 0.9 3.5 0.02 0.53 0.17 91 1008.3
20260506123226 47 49 0.0 1.7 0.01 0.52 0.16 91 1008.3
20260506121718 47 61 0.0 0.9 0.01 0.52 0.16 91 1008.3
20260506120224 47 61 0.0 0.0 0.02 0.52 0.16 91 1008.2
20260506114748 47 61 0.0 0.0 0.01 0.51 0.15 91 1008.2
20260506113216 47 61 0.0 0.0 0.01 0.51 0.15 91 1007.8
20260506111729 47 61 0.0 0.9 0.01 0.50 0.14 91 1007.7
20260506110234 47 61 0.0 0.0 0.01 0.50 0.14 91 1007.3
20260506104714 47 56 0.0 2.6 0.02 0.50 0.14 91 1007.1
20260506103250 47 35 0.0 0.0 0.02 0.50 0.14 91 1007.3
20260506101740 47 36 0.0 0.9 0.02 0.49 0.13 91 1006.9
20260506100228 47 36 0.0 2.6 0.02 0.49 0.13 91 1006.5
20260506094728 47 269 0.0 0.0 0.02 0.48 0.12 91 1007.0
20260506093219 47 269 1.7 3.5 0.02 0.48 0.12 91 1007.5
20260506091732 47 296 0.9 3.5 0.01 0.47 0.11 91 1007.5
20260506090238 48 280 0.9 1.7 0.02 0.47 0.11 91 1007.1
20260506084717 48 57 0.0 0.9 0.01 0.46 0.10 91 1006.8
20260506083228 48 57 0.0 0.9 0.02 0.46 0.10 91 1006.8
20260506081723 48 57 0.0 0.9 0.02 0.46 0.10 91 1007.2
20260506080224 47 57 0.0 0.0 0.02 0.45 0.09 91 1007.3
20260506073217 47 57 0.0 0.0 0.02 0.44 0.08 91 1006.9
20260506071713 47 57 0.0 0.9 0.02 0.44 0.08 91 1006.9
20260506070257 48 57 0.0 0.0 0.02 0.43 0.07 91 1007.0
20260506061721 48 57 0.0 0.0 0.02 0.42 0.06 91 1007.0
20260506060244 48 57 0.0 0.0 0.02 0.41 0.05 91 1007.2
20260506050235 48 284 0.0 0.0 0.03 0.39 0.03 91 1007.5
20260506044736 48 284 0.0 0.0 0.02 0.38 0.02 91 1007.6
20260506043227 48 284 0.0 0.0 0.03 0.38 0.02 91 1007.7
20260506041722 48 284 0.0 0.0 0.02 0.37 0.01 91 1007.8
20260506040224 48 284 0.0 0.0 0.02 0.36 0.00 91 1008.0
20260506034725 49 284 0.0 2.6 0.03 0.36 0.36 91 1008.2
20260506033220 50 58 0.9 1.7 0.02 0.35 0.35 91 1008.2
20260506031754 50 61 0.0 0.0 0.03 0.35 0.35 92 1008.1
20260506030233 50 61 0.0 1.7 0.03 0.34 0.34 91 1008.3
20260506024713 51 61 0.0 0.0 0.02 0.33 0.33 91 1008.0
20260506023231 51 61 0.0 0.0 0.02 0.32 0.32 91 1007.8
20260506021721 51 61 0.0 0.0 0.03 0.32 0.32 91 1007.8
20260506020245 51 61 0.0 0.0 0.03 0.31 0.31 91 1007.7
20260506014724 51 61 0.0 0.0 0.03 0.31 0.31 91 1007.7
20260506013220 51 61 0.0 0.0 0.03 0.30 0.30 91 1007.7
20260506011733 51 61 0.0 0.0 0.03 0.29 0.29 91 1007.5
20260506010256 51 61 0.0 3.5 0.02 0.28 0.28 91 1007.4
20260506004715 51 50 0.0 1.7 0.04 0.28 0.28 91 1007.6
20260506003229 51 50 0.0 0.0 0.03 0.27 0.27 90 1007.3
20260506001744 51 50 0.0 0.0 0.03 0.26 0.26 90 1007.3
20260506000227 50 50 0.0 0.0 0.04 0.26 0.26 90 1007.1
20260505234725 50 50 0.0 1.7 0.04 0.24 0.24 90 1007.0
20260505233221 50 346 0.0 2.6 0.04 0.24 0.24 90 1007.7
20260505231712 50 290 0.0 0.0 0.04 0.22 0.22 90 1007.6
20260505230235 50 288 0.0 2.6 0.05 0.22 0.22 90 1008.0
20260505224714 50 288 0.0 0.9 0.04 0.24 0.20 89 1007.3
20260505223211 50 288 0.0 1.7 0.06 0.24 0.20 89 1007.5
20260505221723 50 290 0.0 1.7 0.05 0.22 0.18 89 1007.5
20260505220224 50 289 0.0 1.7 0.05 0.21 0.17 89 1007.5
20260505214732 51 289 0.0 2.6 0.06 0.20 0.16 89 1007.3
20260505213223 51 289 0.9 2.6 0.06 0.18 0.14 88 1007.1
20260505211736 52 289 0.0 2.6 0.07 0.17 0.13 88 1007.3
20260505210237 53 322 1.7 4.3 0.08 0.16 0.12 88 1006.9
20260505204744 55 291 2.6 3.5 0.08 0.14 0.10 88 1006.7
20260505203214 57 286 1.7 4.3 0.07 0.12 0.08 88 1006.6
20260505201725 57 288 0.0 1.7 0.06 0.10 0.06 87 1006.6
20260505200226 57 288 0.0 1.7 0.04 0.08 0.04 86 1006.6
20260505194730 57 288 0.0 1.7 0.02 0.06 0.02 85 1006.8
20260505193221 57 288 1.7 3.5 0.01 0.05 0.01 83 1006.7
20260505191732 58 276 1.7 4.3 0.00 0.04 0.00 80 1006.8
20260505190234 59 294 3.5 7.0 0.00 0.04 0.00 77 1006.7
20260505184720 61 294 2.6 7.8 0.00 0.04 0.00 73 1006.6
20260505183234 65 300 5.2 10.4 0.00 0.04 0.00 68 1006.8
20260505181724 66 248 2.6 7.0 0.00 0.04 0.00 69 1006.5
20260505180227 65 265 1.7 6.1 0.00 0.04 0.00 70 1006.4
20260505174734 64 257 1.7 7.8 0.00 0.04 0.00 72 1006.4
20260505173225 64 284 2.6 6.1 0.00 0.04 0.00 71 1006.2
20260505171715 64 278 1.7 6.1 0.00 0.04 0.00 72 1006.2
20260505170237 64 277 1.7 5.2 0.00 0.04 0.00 71 1006.2
20260505164721 64 252 1.7 7.0 0.00 0.04 0.00 70 1006.2
20260505163212 65 267 1.7 8.7 0.00 0.04 0.00 66 1006.3
20260505161724 69 244 4.3 7.8 0.00 0.04 0.00 61 1006.0
20260505160253 70 249 2.6 8.7 0.00 0.04 0.00 60 1005.9
20260505153228 70 245 5.2 14.8 0.00 0.04 0.00 58 1005.3
20260505151742 70 311 1.7 9.6 0.00 0.04 0.00 61 1004.9
20260505150227 69 307 1.7 7.0 0.00 0.04 0.00 61 1004.9